When you browse on this site, cookies collect data to enhance your experience and personalize the content and advertising you see.
Visit our Privacy Policy to learn more. By continuing to use the site, you agree to this use of cookies and data.
  • In Österreich
  • Länderverzeichnis
  • Für 7 Tage
  • Wassertemperatur
  • Wetterkarte
  • News
  • Widgets
  • user-avatar
    Anmelden

    Stündliche Wetter Lenin

    Heute, 25 August, Sonntag

    Zeit Temperatur Niederschläge Wind Luftdruck Luftfeuchtigkeit
    00:00 +15°C° 0 mm 1 m/S 757 mmHg 80%
    01:00 +14°C° 0 mm 1 m/S 758 mmHg 82%
    02:00 +14°C° 0 mm 1 m/S 758 mmHg 84%
    03:00 +14°C° 0 mm 1 m/S 758 mmHg 85%
    04:00 +14°C° 0 mm 1 m/S 758 mmHg 86%
    05:00 +14°C° 0 mm 1 m/S 758 mmHg 87%
    06:00 +15°C° 0 mm 1 m/S 758 mmHg 82%
    07:00 +18°C° 0 mm 1 m/S 758 mmHg 76%
    08:00 +20°C° 0 mm 1 m/S 758 mmHg 71%
    09:00 +22°C° 0 mm 1 m/S 758 mmHg 65%
    10:00 +23°C° 0 mm 1 m/S 758 mmHg 60%
    11:00 +25°C° 0 mm 1 m/S 758 mmHg 54%
    12:00 +26°C° 0 mm 1 m/S 758 mmHg 52%
    13:00 +26°C° 0 mm 1 m/S 758 mmHg 49%
    14:00 +27°C° 0 mm 1 m/S 758 mmHg 47%
    15:00 +27°C° 0 mm 1 m/S 758 mmHg 50%
    16:00 +26°C° 0 mm 2 m/S 757 mmHg 54%
    17:00 +26°C° 0 mm 2 m/S 757 mmHg 58%
    18:00 +24°C° 0 mm 2 m/S 757 mmHg 63%
    19:00 +21°C° 0 mm 2 m/S 758 mmHg 69%
    20:00 +19°C° 0 mm 2 m/S 758 mmHg 75%
    21:00 +19°C° 0 mm 2 m/S 758 mmHg 79%
    22:00 +18°C° 0 mm 2 m/S 758 mmHg 83%
    23:00 +17°C° 0 mm 2 m/S 758 mmHg 87%

    Morgen, 26 August, Montag

    Zeit Temperatur Niederschläge Wind Luftdruck Luftfeuchtigkeit
    00:00 +17°C° 0 mm 2 m/S 758 mmHg 89%
    01:00 +17°C° 0 mm 2 m/S 758 mmHg 90%
    02:00 +16°C° 0 mm 2 m/S 758 mmHg 92%
    03:00 +16°C° 0 mm 2 m/S 758 mmHg 93%
    04:00 +16°C° 0 mm 2 m/S 758 mmHg 94%
    05:00 +15°C° 0 mm 2 m/S 758 mmHg 94%
    06:00 +17°C° 0 mm 2 m/S 758 mmHg 89%
    07:00 +18°C° 0 mm 2 m/S 758 mmHg 84%
    08:00 +20°C° 0 mm 2 m/S 758 mmHg 79%
    09:00 +21°C° 0 mm 2 m/S 758 mmHg 73%
    10:00 +24°C° 0 mm 2 m/S 758 mmHg 67%
    11:00 +26°C° 0 mm 2 m/S 758 mmHg 61%
    12:00 +26°C° 0 mm 2 m/S 758 mmHg 58%
    13:00 +27°C° 0 mm 2 m/S 758 mmHg 56%
    14:00 +28°C° 0 mm 2 m/S 757 mmHg 53%
    15:00 +27°C° 0 mm 2 m/S 757 mmHg 56%
    16:00 +27°C° 0 mm 1 m/S 757 mmHg 58%
    17:00 +27°C° 0 mm 1 m/S 756 mmHg 60%
    18:00 +25°C° 0 mm 1 m/S 756 mmHg 66%
    19:00 +23°C° 0 mm 1 m/S 756 mmHg 72%
    20:00 +21°C° 0 mm 1 m/S 756 mmHg 78%
    21:00 +20°C° 0 mm 1 m/S 757 mmHg 79%
    22:00 +19°C° 0 mm 2 m/S 757 mmHg 81%
    23:00 +18°C° 0 mm 2 m/S 757 mmHg 83%

    übermorgen, 27 August, Dienstag

    Zeit Temperatur Niederschläge Wind Luftdruck Luftfeuchtigkeit
    00:00 +18°C° 0 mm 2 m/S 757 mmHg 85%
    01:00 +18°C° 0 mm 1 m/S 757 mmHg 86%
    02:00 +18°C° 0 mm 1 m/S 757 mmHg 88%
    03:00 +16°C° 0 mm 1 m/S 757 mmHg 89%
    04:00 +16°C° 0 mm 1 m/S 757 mmHg 90%
    05:00 +16°C° 0 mm 1 m/S 757 mmHg 90%
    06:00 +18°C° 0 mm 1 m/S 757 mmHg 84%
    07:00 +20°C° 0 mm 1 m/S 757 mmHg 78%
    08:00 +22°C° 0 mm 1 m/S 757 mmHg 72%
    09:00 +23°C° 0 mm 1 m/S 757 mmHg 68%
    10:00 +25°C° 0 mm 1 m/S 757 mmHg 63%
    11:00 +26°C° 0 mm 1 m/S 757 mmHg 58%
    12:00 +27°C° 0 mm 1 m/S 757 mmHg 56%
    13:00 +27°C° 0 mm 1 m/S 756 mmHg 53%
    14:00 +28°C° 0 mm 1 m/S 756 mmHg 51%
    15:00 +27°C° 0 mm 1 m/S 756 mmHg 55%
    16:00 +27°C° 0 mm 2 m/S 756 mmHg 59%
    17:00 +26°C° 0 mm 2 m/S 756 mmHg 63%
    18:00 +24°C° 0 mm 2 m/S 756 mmHg 67%
    19:00 +23°C° 0 mm 1 m/S 756 mmHg 71%
    20:00 +21°C° 0 mm 1 m/S 756 mmHg 75%
    21:00 +20°C° 0 mm 1 m/S 756 mmHg 77%
    22:00 +20°C° 0 mm 1 m/S 756 mmHg 78%
    23:00 +19°C° 0 mm 1 m/S 756 mmHg 80%

    28 August, Mittwoch

    Zeit Temperatur Niederschläge Wind Luftdruck Luftfeuchtigkeit
    00:00 +19°C° 0 mm 1 m/S 756 mmHg 83%
    01:00 +18°C° 0 mm 1 m/S 756 mmHg 87%
    02:00 +18°C° 0 mm 1 m/S 756 mmHg 90%
    03:00 +18°C° 0 mm 1 m/S 756 mmHg 91%
    04:00 +16°C° 0 mm 1 m/S 756 mmHg 92%
    05:00 +16°C° 0 mm 1 m/S 756 mmHg 93%
    06:00 +19°C° 0 mm 1 m/S 756 mmHg 88%
    07:00 +20°C° 0 mm 1 m/S 756 mmHg 82%
    08:00 +21°C° 0 mm 1 m/S 757 mmHg 77%
    09:00 +23°C° 0 mm 2 m/S 757 mmHg 71%
    10:00 +24°C° 0 mm 2 m/S 757 mmHg 65%
    11:00 +26°C° 0 mm 2 m/S 757 mmHg 59%
    12:00 +26°C° 0 mm 3 m/S 756 mmHg 56%
    13:00 +26°C° 0 mm 3 m/S 756 mmHg 54%
    14:00 +27°C° 0 mm 3 m/S 756 mmHg 52%
    15:00 +26°C° 0 mm 3 m/S 756 mmHg 54%
    16:00 +26°C° 0 mm 3 m/S 755 mmHg 55%
    17:00 +25°C° 0 mm 3 m/S 755 mmHg 57%
    18:00 +22°C° 0 mm 3 m/S 755 mmHg 62%
    19:00 +20°C° 0 mm 3 m/S 755 mmHg 67%
    20:00 +18°C° 0 mm 3 m/S 755 mmHg 72%
    21:00 +17°C° 0 mm 3 m/S 756 mmHg 74%
    22:00 +17°C° 0 mm 3 m/S 756 mmHg 77%
    23:00 +16°C° 0 mm 3 m/S 756 mmHg 79%

    29 August, Donnerstag

    Zeit Temperatur Niederschläge Wind Luftdruck Luftfeuchtigkeit
    00:00 +14°C° 0 mm 3 m/S 756 mmHg 81%
    01:00 +13°C° 0 mm 3 m/S 756 mmHg 84%
    02:00 +13°C° 0 mm 3 m/S 756 mmHg 86%
    03:00 +12°C° 0 mm 3 m/S 756 mmHg 86%
    04:00 +12°C° 0 mm 3 m/S 756 mmHg 86%
    05:00 +11°C° 0 mm 3 m/S 756 mmHg 86%
    06:00 +12°C° 0 mm 3 m/S 756 mmHg 81%
    07:00 +14°C° 0 mm 3 m/S 756 mmHg 77%
    08:00 +16°C° 0 mm 3 m/S 756 mmHg 72%
    09:00 +17°C° 0 mm 3 m/S 756 mmHg 68%
    10:00 +19°C° 0 mm 4 m/S 756 mmHg 64%
    11:00 +21°C° 0 mm 4 m/S 756 mmHg 59%
    12:00 +22°C° 0 mm 4 m/S 756 mmHg 57%
    13:00 +22°C° 0 mm 4 m/S 756 mmHg 54%
    14:00 +23°C° 0 mm 4 m/S 755 mmHg 51%
    15:00 +23°C° 0 mm 4 m/S 755 mmHg 53%
    16:00 +22°C° 0 mm 4 m/S 755 mmHg 54%
    17:00 +22°C° 0 mm 3 m/S 755 mmHg 55%
    18:00 +20°C° 0 mm 3 m/S 755 mmHg 57%
    19:00 +18°C° 0 mm 3 m/S 755 mmHg 58%
    20:00 +16°C° 0 mm 3 m/S 755 mmHg 60%
    21:00 +14°C° 0 mm 3 m/S 755 mmHg 61%
    22:00 +13°C° 0 mm 3 m/S 755 mmHg 62%
    23:00 +12°C° 0 mm 3 m/S 755 mmHg 63%

    30 August, Freitag

    Zeit Temperatur Niederschläge Wind Luftdruck Luftfeuchtigkeit
    00:00 +12°C° 0 mm 3 m/S 755 mmHg 66%
    01:00 +11°C° 0 mm 3 m/S 755 mmHg 68%
    02:00 +11°C° 0 mm 3 m/S 755 mmHg 71%
    03:00 +10°C° 0 mm 3 m/S 755 mmHg 73%
    04:00 +10°C° 0 mm 3 m/S 755 mmHg 76%
    05:00 +9°C° 0 mm 3 m/S 755 mmHg 78%
    06:00 +11°C° 0 mm 3 m/S 755 mmHg 73%
    07:00 +13°C° 0 mm 3 m/S 755 mmHg 69%
    08:00 +14°C° 0 mm 3 m/S 755 mmHg 64%
    09:00 +17°C° 0 mm 3 m/S 755 mmHg 58%
    10:00 +19°C° 0 mm 4 m/S 755 mmHg 53%
    11:00 +21°C° 0 mm 4 m/S 755 mmHg 47%
    12:00 +22°C° 0 mm 4 m/S 755 mmHg 45%
    13:00 +23°C° 0 mm 4 m/S 755 mmHg 43%
    14:00 +25°C° 0 mm 3 m/S 755 mmHg 41%
    15:00 +24°C° 0 mm 3 m/S 754 mmHg 45%
    16:00 +24°C° 0 mm 3 m/S 754 mmHg 49%
    17:00 +24°C° 0 mm 2 m/S 754 mmHg 53%
    18:00 +21°C° 0 mm 2 m/S 754 mmHg 57%
    19:00 +18°C° 0 mm 2 m/S 754 mmHg 61%
    20:00 +16°C° 0 mm 2 m/S 754 mmHg 65%
    21:00 +16°C° 0 mm 2 m/S 754 mmHg 66%
    22:00 +15°C° 0 mm 2 m/S 754 mmHg 68%
    23:00 +14°C° 0 mm 2 m/S 754 mmHg 69%
    Mehr zeigen